STARLINK-34683, 64857

Orbit data source: Space-Track

STARLINK-34683, 64857 is a payload satellite owned by SpaceX/Seattle (US) in SSO that was launched on Sat, 19 Jul 2025 UTC via an FALCON 9 launch vehicle from the Air Force Western Test Range (AFWTR). Payload-class satellites include a variety of spacecraft equipped with specific instruments for various scientific and technological missions. These include communications satellites like Starlink; space stations such as the ISS; scientific satellites like the Hubble; Earth observation satellites from companies like Planet Labs, Umbra, and HawkEye 360; GPS; miniature CubeSats for education and research; and military/defense satellites.

Loading next visibility...
Identifier
64857, 2025-152R
Orbit
SSO
Country
Flag of USUS
Related business
Manufacturer
SpaceX/Seattle
Mission
Operational Commercial Communications
Bus & Motor
STARLINK V2MO, Unknown motor
Mass
575 kg wet, ~530 kg dry
Launch date (UTC)
2025-07-19 (11 months ago)
Launch vehicle
FALCON 9
Launch site
Air Force Western Test Range (AFWTR)
Object type
Payload
Rocket body
Debris
Shape & HBR
Box + 2 Pan, 17.7 m
Radar Cross Section
36.964 m², Large (>1 m²)

Expand to show TLE details & history
Last TLE update: 12 hours ago

TLE from 12 hours ago
0 STARLINK-34683
1 64857U 25152R   26171.33474549 -.00001610  00000-0 -10761-3 0  9999
2 64857  97.3410  25.6052 0002211  76.3658 283.7815 15.05668607 50864
Epoch: 2026-06-20T08:02Z
TLE epoch observation values (Epoch: 2026-06-20T08:02:02.010Z)
Latitude
-0.00008°
Longitude
-3.45402°
Altitude
552.162 km
Speed
7.586 km/s
True Right ascension
01h 42m 25s
True Declination
0° 00' 00"
Sunlit
Object was in daylight at epoch
Visualization orbit readout
Latitude
Unknown
Longitude
Unknown
Altitude
Unknown
Speed
Unknown
Apparent Right ascension
Unknown
Apparent Declination
Unknown
Sunlit
N/A
Visualization observer readout
Local Sidereal Time
07:21:51
Azimuth
Unknown
Elevation
Unknown
Doppler factor
Unknown
Orbital elements
Apogee altitude
547.967 km
Perigee altitude
544.905 km
Semi-major axis
6,924.573 km
Eccentricity
0.00022
Inclination
97.341°
RAAN
25.6052°
Arg. of periapsis
76.3658°
True anomaly
283.75689°
Mean anomaly
283.7815°
Eccentric anomaly
283.7692°
Mean motion
3.76664 °/min
Orbital period
95.58 mins
BSTAR
-0.00010761
Loading maneuver chart data...
Computing Atmospheric mass density...
Loading historical data...
Loading historical data...
Loading historical data...
Loading historical data...
Loading historical data...
Loading historical data...
Loading historical data...

Documentation

Showing up to 5 results
|